Вернуться в каталог

CZ-6A DEB

АктивенSSO
NORAD 54281·DEBRIS·🇨🇳 China

Запущен Nov 11, 2022 с Taiyuan Satellite Launch Center

Loading…

Ближайшие Пролёты (ближайшие 24 часа)

TLE

СвежийSource: Space-Track

Эпоха: Sep 14, 2026, 12:14 UTC

1 54281U 22151Y   26257.51027934  .00000183  00000-0  74392-4 0  9995
2 54281  98.5852 280.9228 0103169 111.8888 249.3305 14.35614926200543

Отслеживайте CZ-6A DEB в реальном времени с AllMySat

Download on the App Store